Weather History for Jackson, WY

Change the Weather History Date:

Monday, February 25, 2013

  Actual Average Record
Temperature  
Mean Temperature 10 °F -  
Max Temperature 23 °F 33 °F 51 °F (1981)
Min Temperature -4 °F 6 °F -23 °F (2003)
Degree Days  
Heating Degree Days 56    
Moisture  
Dew Point 4 °F    
Average Humidity 87    
Maximum Humidity 100    
Minimum Humidity 68    
Precipitation  
Precipitation 0.00 in - - ()
Sea Level Pressure  
Sea Level Pressure 30.04 in    
Wind  
Wind Speed 9 mph (NNE)    
Max Wind Speed 15 mph    
Max Gust Speed -    
Visibility 10 miles    
Events      
Averages and records for this station are not official NWS values.
T = Trace of Precipitation, MM = Missing Value Source: NWS Daily Summary

Daily Weather History Graph

Daily Weather History Graph

Search for Another Location

Airport:

Trip Planner

Search our weather history database for the weather conditions in past years. The results will help you decide how hot, cold, wet, or windy it might be!

Date:

Astronomy

Feb. 25, 2013 Rise Set
Actual Time 7:05 AM MST 6:06 PM MST
Civil Twilight 6:36 AM MST 6:35 PM MST
Nautical Twilight 6:03 AM MST 7:09 PM MST
Astronomical Twilight 5:30 AM MST 7:42 PM MST
Moon 6:26 PM MST (2/25) 6:36 AM MST (2/25)
Length of Visible Light 11h 59m
Length of Day
11h 01m
Full, 100% of the Moon is Illuminated
Feb 25
Full
Feb 25
Full
Mar 4
Last Quarter
Mar 11
New
Mar 19
First Quarter

Hourly Weather History & Observations

Time (MST) Temp. Windchill Dew Point Humidity Pressure Visibility Wind Dir Wind Speed Gust Speed Precip Events Conditions
12:15 AM -0.4 °F -17.6 °F -2.2 °F 92% 30.14 in 10.0 mi North 11.5 mph - N/A   Clear
12:35 AM -2.2 °F -16.8 °F -4.0 °F 92% 30.14 in 10.0 mi North 8.1 mph - N/A   Clear
12:55 AM -2.2 °F -19.9 °F -5.8 °F 85% 30.14 in 10.0 mi North 11.5 mph - N/A   Clear
1:15 AM -2.2 °F -21.5 °F -4.0 °F 92% 30.15 in 10.0 mi North 13.8 mph - N/A   Clear
1:35 AM -2.2 °F -22.2 °F -4.0 °F 92% 30.15 in 10.0 mi North 15.0 mph - N/A   Clear
1:55 AM -2.2 °F -22.2 °F -4.0 °F 92% 30.15 in 10.0 mi North 15.0 mph - N/A   Clear
2:15 AM -0.4 °F -18.4 °F -2.2 °F 92% 30.14 in 10.0 mi NNE 12.7 mph - N/A   Clear
2:35 AM -0.4 °F -14.7 °F -2.2 °F 92% 30.14 in 10.0 mi NNE 8.1 mph - N/A   Clear
2:55 AM -0.4 °F -19.9 °F -2.2 °F 92% 30.13 in 10.0 mi North 15.0 mph - N/A   Clear
3:15 AM -0.4 °F -8.3 °F -2.2 °F 92% 30.14 in 10.0 mi NNE 3.5 mph - N/A   Partly Cloudy
3:35 AM -0.4 °F -10.4 °F -2.2 °F 92% 30.14 in 10.0 mi NNE 4.6 mph - N/A   Clear
3:55 AM -0.4 °F -13.4 °F -4.0 °F 85% 30.14 in 10.0 mi NNE 6.9 mph - N/A   Clear
4:15 AM -4.0 °F -23.0 °F -5.8 °F 92% 30.14 in 10.0 mi North 12.7 mph - N/A   Clear
4:55 AM -2.2 °F -15.6 °F -5.8 °F 85% 30.14 in 10.0 mi NNE 6.9 mph - N/A   Clear
5:15 AM -2.2 °F -16.8 °F -5.8 °F 85% 30.13 in 10.0 mi North 8.1 mph - N/A   Partly Cloudy
5:35 AM -4.0 °F -21.2 °F -5.8 °F 92% 30.13 in 10.0 mi North 10.4 mph - N/A   Partly Cloudy
5:55 AM -2.2 °F -18.0 °F -5.8 °F 85% 30.13 in 10.0 mi North 9.2 mph - N/A   Clear
6:15 AM -4.0 °F -20.2 °F -5.8 °F 92% 30.13 in 10.0 mi NNE 9.2 mph - N/A   Clear
6:35 AM -2.2 °F -18.0 °F -5.8 °F 85% 30.13 in 10.0 mi North 9.2 mph - N/A   Mostly Cloudy
6:51 AM -2.2 °F -18.0 °F -5.8 °F 85% 30.12 in 10.0 mi North 9.2 mph - N/A   Mostly Cloudy
6:55 AM -2.2 °F -16.8 °F -5.8 °F 85% 30.12 in 10.0 mi North 8.1 mph - N/A   Mostly Cloudy
7:51 AM 1.4 °F -9.9 °F -0.4 °F 92% 30.11 in 10.0 mi North 5.8 mph - N/A   Mostly Cloudy
8:53 AM 5.0 °F -6.9 °F 1.4 °F 85% 30.10 in 10.0 mi North 6.9 mph - N/A   Mostly Cloudy
9:55 AM 6.8 °F -2.0 °F 1.4 °F 79% 30.07 in 10.0 mi NNE 4.6 mph - N/A   Scattered Clouds
10:51 AM 10.4 °F 4.0 °F 3.2 °F 73% 30.05 in 10.0 mi East 3.5 mph - N/A   Scattered Clouds
11:55 AM 12.2 °F 6.1 °F 6.8 °F 79% 30.02 in 10.0 mi East 3.5 mph - N/A   Mostly Cloudy
12:51 PM 15.8 °F 8.6 °F 8.6 °F 73% 29.99 in 10.0 mi East 4.6 mph - N/A   Overcast
1:59 PM 17.6 °F 12.3 °F 10.4 °F 73% 29.94 in 10.0 mi East 3.5 mph - N/A   Mostly Cloudy
2:51 PM 19.4 °F - 10.4 °F 68% 29.92 in 10.0 mi Calm Calm - N/A   Mostly Cloudy
2:59 PM 17.6 °F 12.3 °F 10.4 °F 73% 29.94 in 10.0 mi East 3.5 mph - N/A   Mostly Cloudy
4:51 PM 19.4 °F 12.8 °F 12.2 °F 74% 29.89 in 10.0 mi East 4.6 mph - N/A   Overcast
5:56 PM 23.0 °F 12.4 °F 15.8 °F 74% 29.88 in 10.0 mi South 10.4 mph - N/A   Overcast
6:52 PM 21.2 °F 8.9 °F 15.8 °F 80% 29.89 in 10.0 mi South 12.7 mph - N/A   Overcast
7:54 PM 21.2 °F 11.7 °F 15.8 °F 80% 29.89 in 10.0 mi SSW 8.1 mph - N/A   Mostly Cloudy
8:54 PM 19.4 °F 10.4 °F 17.6 °F 93% 29.90 in 10.0 mi South 6.9 mph - N/A   Overcast
9:35 PM 19.4 °F 11.5 °F 17.6 °F 93% 29.90 in 8.0 mi SSW 5.8 mph - N/A   Overcast
9:55 PM 17.6 °F 9.3 °F 15.8 °F 93% 29.90 in 7.0 mi SSW 5.8 mph - N/A   Overcast
10:15 PM 17.6 °F 10.7 °F 15.8 °F 93% 29.90 in 10.0 mi SSW 4.6 mph - N/A   Overcast
10:36 PM 15.8 °F - 15.8 °F 100% 29.91 in 10.0 mi Calm Calm - N/A   Overcast
10:55 PM 17.6 °F - 17.6 °F 100% 29.91 in 7.0 mi Calm Calm - N/A   Overcast
11:15 PM 17.6 °F 10.7 °F 17.6 °F 100% 29.91 in 3.0 mi SW 4.6 mph - N/A   Overcast
11:35 PM 17.6 °F 10.7 °F 17.6 °F 100% 29.90 in 9.0 mi SW 4.6 mph - N/A   Overcast